| time (UTC) | temp C | wind direction | speed KPH | gust KPH | rain 1hr cm | rain 24hr cm | rain mn cm | humidity % | barometer mb |
| 20260504081504 | 6 | 302 | 0.0 | 1.6 | 0.00 | 0.00 | 0.00 | 76 | 1007.1 |
| 20260504044541 | 0 | 250 | 0.0 | 3.2 | 0.00 | 0.00 | 0.00 | 87 | 1007.8 |
| 20260504043028 | 0 | 250 | 0.0 | 1.6 | 0.00 | 0.00 | 0.00 | 86 | 1008.0 |
| 20260504041527 | 0 | 250 | 0.0 | 3.2 | 0.00 | 0.00 | 0.00 | 86 | 1008.0 |
| 20260504040024 | 0 | 251 | 0.0 | 0.0 | 0.00 | 0.00 | 0.00 | 84 | 1008.0 |
| 20260504034522 | 0 | 251 | 0.0 | 1.6 | 0.00 | 0.00 | 0.00 | 83 | 1007.9 |
| 20260504033020 | 0 | 267 | 0.0 | 0.0 | 0.00 | 0.00 | 0.00 | 83 | 1008.0 |
| 20260504031518 | 0 | 267 | 0.0 | 0.0 | 0.00 | 0.00 | 0.00 | 83 | 1008.0 |
| 20260504030021 | 0 | 267 | 0.0 | 3.2 | 0.00 | 0.00 | 0.00 | 82 | 1008.1 |
| 20260504024515 | 1 | 267 | 0.0 | 1.6 | 0.00 | 0.00 | 0.00 | 80 | 1008.1 |
| 20260504023015 | 1 | 267 | 0.0 | 0.0 | 0.00 | 0.00 | 0.00 | 78 | 1008.2 |
| 20260504021512 | 2 | 267 | 0.0 | 0.0 | 0.00 | 0.00 | 0.00 | 77 | 1008.2 |
| 20260504020013 | 2 | 267 | 0.0 | 0.0 | 0.00 | 0.00 | 0.00 | 74 | 1008.2 |
| 20260504014506 | 2 | 267 | 0.0 | 0.0 | 0.00 | 0.03 | 0.00 | 73 | 1008.2 |
| 20260504013010 | 3 | 267 | 0.0 | 0.0 | 0.00 | 0.03 | 0.00 | 71 | 1008.2 |
| 20260504011506 | 3 | 267 | 0.0 | 0.0 | 0.00 | 0.03 | 0.00 | 71 | 1008.1 |
| 20260504010004 | 3 | 267 | 0.0 | 0.0 | 0.00 | 0.03 | 0.00 | 69 | 1008.0 |
| 20260504004504 | 5 | 267 | 0.0 | 0.0 | 0.00 | 0.03 | 0.00 | 66 | 1007.8 |
| 20260504003003 | 5 | 267 | 0.0 | 0.0 | 0.00 | 0.03 | 0.00 | 63 | 1007.6 |
| 20260504001503 | 6 | 267 | 0.0 | 0.0 | 0.00 | 0.03 | 0.00 | 60 | 1007.6 |
| 20260504000002 | 7 | 267 | 0.0 | 0.0 | 0.00 | 0.03 | 0.00 | 57 | 1007.6 |
| 20260503234503 | 7 | 270 | 0.0 | 3.2 | 0.00 | 0.03 | 0.00 | 57 | 1007.5 |
| 20260503233001 | 8 | 238 | 1.6 | 4.8 | 0.00 | 0.03 | 0.00 | 50 | 1007.5 |
| 20260503231503 | 8 | 230 | 3.2 | 9.7 | 0.00 | 0.03 | 0.00 | 48 | 1007.3 |
| 20260503224600 | 8 | 256 | 0.0 | 9.7 | 0.00 | 0.05 | 0.00 | 48 | 1007.5 |
| 20260503223059 | 9 | 216 | 1.6 | 6.4 | 0.00 | 0.05 | 0.00 | 44 | 1007.3 |
| 20260503221601 | 9 | 333 | 0.0 | 6.4 | 0.00 | 0.05 | 0.00 | 44 | 1007.4 |
| 20260503220057 | 8 | 224 | 1.6 | 8.0 | 0.00 | 0.05 | 0.00 | 50 | 1007.5 |
| 20260503214602 | 8 | 306 | 1.6 | 8.0 | 0.00 | 0.05 | 0.00 | 45 | 1007.4 |
| 20260503213055 | 8 | 302 | 3.2 | 9.7 | 0.00 | 0.05 | 0.00 | 45 | 1007.5 |
| 20260503211556 | 8 | 240 | 1.6 | 8.0 | 0.00 | 0.05 | 0.00 | 49 | 1007.5 |
| 20260503210054 | 8 | 348 | 0.0 | 16.1 | 0.00 | 0.05 | 0.00 | 47 | 1007.4 |
| 20260503204558 | 9 | 314 | 4.8 | 11.3 | 0.00 | 0.05 | 0.00 | 48 | 1007.4 |
| 20260503203051 | 8 | 155 | 1.6 | 9.7 | 0.00 | 0.05 | 0.00 | 54 | 1007.5 |
| 20260503201550 | 7 | 240 | 4.8 | 16.1 | 0.00 | 0.05 | 0.00 | 54 | 1007.7 |
| 20260503200050 | 8 | 238 | 4.8 | 20.9 | 0.00 | 0.05 | 0.00 | 50 | 1007.6 |
| 20260503194548 | 8 | 255 | 0.0 | 9.7 | 0.00 | 0.05 | 0.00 | 51 | 1007.6 |
| 20260503193100 | 8 | 253 | 3.2 | 12.9 | 0.00 | 0.05 | 0.00 | 50 | 1007.8 |
| 20260503191545 | 8 | 317 | 4.8 | 17.7 | 0.00 | 0.05 | 0.00 | 48 | 1008.0 |
| 20260503190059 | 8 | 204 | 3.2 | 11.3 | 0.00 | 0.05 | 0.00 | 54 | 1007.9 |
| 20260503184542 | 8 | 331 | 6.4 | 16.1 | 0.00 | 0.05 | 0.00 | 47 | 1008.0 |
| 20260503183055 | 8 | 51 | 1.6 | 16.1 | 0.00 | 0.05 | 0.00 | 51 | 1008.2 |
| 20260503181540 | 8 | 271 | 3.2 | 16.1 | 0.00 | 0.05 | 0.00 | 48 | 1008.3 |
| 20260503180051 | 8 | 241 | 6.4 | 17.7 | 0.00 | 0.05 | 0.00 | 48 | 1008.1 |
| 20260503174540 | 8 | 5 | 4.8 | 19.3 | 0.00 | 0.05 | 0.00 | 49 | 1008.2 |
| 20260503173053 | 8 | 254 | 4.8 | 16.1 | 0.00 | 0.05 | 0.00 | 48 | 1008.1 |
| 20260503171543 | 8 | 355 | 1.6 | 17.7 | 0.00 | 0.05 | 0.00 | 53 | 1008.2 |